Time,TemperatureF,DewpointF,PressureIn,WindDirection,WindDirectionDegrees,WindSpeedMPH,WindSpeedGustMPH,Humidity,HourlyPrecipIn,Conditions,Clouds,dailyrainin,SoftwareType,DateUTC
2013-04-23 00:01:00,40.8,31.5,30.58,South,180,7.0,10.0,69,0.00,,,0.00,meteohub,2013-04-23 04:01:00,
2013-04-23 00:02:00,40.8,31.5,30.58,NE,45,4.0,10.0,69,0.00,,,0.00,meteohub,2013-04-23 04:02:00,
2013-04-23 00:07:00,40.8,31.5,30.57,WNW,293,5.0,10.0,69,0.00,,,0.00,meteohub,2013-04-23 04:07:00,
2013-04-23 00:12:00,40.8,31.8,30.58,SE,135,4.0,10.0,70,0.00,,,0.00,meteohub,2013-04-23 04:12:00,
2013-04-23 00:17:00,40.8,31.5,30.57,West,270,2.0,7.0,69,0.00,,,0.00,meteohub,2013-04-23 04:17:00,
2013-04-23 00:22:00,40.8,31.8,30.57,North,0,5.0,6.0,70,0.00,,,0.00,meteohub,2013-04-23 04:22:00,
2013-04-23 00:28:00,40.8,31.5,30.57,NE,45,7.0,8.0,69,0.00,,,0.00,meteohub,2013-04-23 04:28:00,
2013-04-23 00:33:00,41.0,31.3,30.57,East,90,4.0,9.0,68,0.00,,,0.00,meteohub,2013-04-23 04:33:00,
2013-04-23 00:38:00,41.0,31.6,30.57,West,270,4.0,9.0,69,0.00,,,0.00,meteohub,2013-04-23 04:38:00,
2013-04-23 00:43:00,41.0,31.6,30.56,West,270,2.0,9.0,69,0.00,,,0.00,meteohub,2013-04-23 04:43:00,
2013-04-23 00:48:00,41.0,31.6,30.56,North,0,5.0,8.0,69,0.00,,,0.00,meteohub,2013-04-23 04:48:00,
2013-04-23 00:53:00,41.0,31.6,30.56,South,180,2.0,8.0,69,0.00,,,0.00,meteohub,2013-04-23 04:53:00,
2013-04-23 00:58:00,41.0,31.6,30.55,NE,45,4.0,8.0,69,0.00,,,0.00,meteohub,2013-04-23 04:58:00,
2013-04-23 01:03:00,41.0,31.3,30.56,NE,45,4.0,6.0,68,0.00,,,0.00,meteohub,2013-04-23 05:03:00,
2013-04-23 01:08:00,41.0,31.6,30.55,NE,45,4.0,9.0,69,0.00,,,0.00,meteohub,2013-04-23 05:08:00,
2013-04-23 01:13:00,41.0,31.6,30.55,East,90,6.0,9.0,69,0.00,,,0.00,meteohub,2013-04-23 05:13:00,
2013-04-23 01:18:00,41.0,31.6,30.56,West,270,6.0,9.0,69,0.00,,,0.00,meteohub,2013-04-23 05:18:00,
2013-04-23 01:23:00,41.0,31.6,30.55,West,270,2.0,8.0,69,0.00,,,0.00,meteohub,2013-04-23 05:23:00,
2013-04-23 01:28:00,41.0,32.0,30.54,NNE,23,2.0,8.0,70,0.00,,,0.00,meteohub,2013-04-23 05:28:00,
2013-04-23 01:33:00,41.0,32.0,30.54,NW,315,4.0,8.0,70,0.00,,,0.00,meteohub,2013-04-23 05:33:00,
2013-04-23 01:38:00,41.0,31.6,30.54,North,0,4.0,7.0,69,0.00,,,0.00,meteohub,2013-04-23 05:38:00,
2013-04-23 01:44:00,41.2,31.8,30.54,East,90,6.0,7.0,69,0.00,,,0.00,meteohub,2013-04-23 05:44:00,
2013-04-23 01:49:00,41.2,31.8,30.53,SE,135,2.0,8.0,69,0.00,,,0.00,meteohub,2013-04-23 05:49:00,
2013-04-23 01:54:00,41.2,31.8,30.53,East,90,7.0,8.0,69,0.00,,,0.00,meteohub,2013-04-23 05:54:00,
2013-04-23 01:59:00,41.2,31.8,30.53,ENE,68,2.0,8.0,69,0.00,,,0.00,meteohub,2013-04-23 05:59:00,
2013-04-23 02:04:00,41.2,31.8,30.53,East,90,4.0,7.0,69,0.00,,,0.00,meteohub,2013-04-23 06:04:00,
2013-04-23 02:09:00,41.2,32.2,30.53,South,180,5.0,7.0,70,0.00,,,0.00,meteohub,2013-04-23 06:09:00,
2013-04-23 02:14:00,41.2,32.2,30.52,East,90,4.0,4.0,70,0.00,,,0.00,meteohub,2013-04-23 06:14:00,
2013-04-23 02:19:00,41.2,32.5,30.51,NE,45,3.0,6.0,71,0.00,,,0.00,meteohub,2013-04-23 06:19:00,
2013-04-23 02:24:00,41.2,32.5,30.51,East,90,5.0,6.0,71,0.00,,,0.00,meteohub,2013-04-23 06:24:00,
2013-04-23 02:29:00,41.2,32.5,30.51,SE,135,1.0,6.0,71,0.00,,,0.00,meteohub,2013-04-23 06:29:00,
2013-04-23 02:34:00,41.2,32.5,30.51,East,90,3.0,6.0,71,0.00,,,0.00,meteohub,2013-04-23 06:34:00,
2013-04-23 02:39:00,41.2,32.5,30.51,NE,45,5.0,6.0,71,0.00,,,0.00,meteohub,2013-04-23 06:39:00,
2013-04-23 02:44:00,41.2,32.2,30.51,NE,45,5.0,8.0,70,0.00,,,0.00,meteohub,2013-04-23 06:44:00,
2013-04-23 02:49:00,41.2,32.5,30.50,West,270,2.0,8.0,71,0.00,,,0.00,meteohub,2013-04-23 06:49:00,
2013-04-23 02:54:00,41.2,32.5,30.50,NW,315,5.0,8.0,71,0.00,,,0.00,meteohub,2013-04-23 06:54:00,
2013-04-23 03:00:00,41.2,32.9,30.50,SE,135,2.0,7.0,72,0.00,,,0.00,meteohub,2013-04-23 07:00:00,
2013-04-23 03:05:00,41.2,32.9,30.50,NE,45,3.0,7.0,72,0.00,,,0.00,meteohub,2013-04-23 07:05:00,
2013-04-23 03:10:00,41.2,32.9,30.50,West,270,2.0,5.0,72,0.00,,,0.00,meteohub,2013-04-23 07:10:00,
2013-04-23 03:15:00,41.2,32.9,30.49,NE,45,3.0,7.0,72,0.00,,,0.00,meteohub,2013-04-23 07:15:00,
2013-04-23 03:20:00,41.2,33.3,30.49,East,90,4.0,7.0,73,0.00,,,0.00,meteohub,2013-04-23 07:20:00,
2013-04-23 03:25:00,41.2,33.3,30.49,SE,135,3.0,7.0,73,0.00,,,0.00,meteohub,2013-04-23 07:25:00,
2013-04-23 03:30:00,41.2,33.3,30.48,West,270,2.0,7.0,73,0.00,,,0.00,meteohub,2013-04-23 07:30:00,
2013-04-23 03:35:00,41.2,33.4,30.48,East,90,8.0,8.0,74,0.00,,,0.00,meteohub,2013-04-23 07:35:00,
2013-04-23 03:40:00,41.2,33.4,30.48,WNW,293,4.0,8.0,74,0.00,,,0.00,meteohub,2013-04-23 07:40:00,
2013-04-23 03:45:00,41.2,33.8,30.48,ENE,68,3.0,8.0,75,0.00,,,0.00,meteohub,2013-04-23 07:45:00,
2013-04-23 03:50:00,41.2,33.8,30.48,East,90,10.0,10.0,75,0.00,,,0.00,meteohub,2013-04-23 07:50:00,
2013-04-23 03:55:00,41.2,34.2,30.48,East,90,8.0,10.0,76,0.00,,,0.00,meteohub,2013-04-23 07:55:00,
2013-04-23 04:01:00,41.2,34.2,30.48,East,90,4.0,10.0,76,0.00,,,0.00,meteohub,2013-04-23 08:01:00,
2013-04-23 04:06:00,41.2,34.2,30.48,East,90,4.0,10.0,76,0.00,,,0.00,meteohub,2013-04-23 08:06:00,
2013-04-23 04:11:00,41.2,34.5,30.49,South,180,4.0,8.0,77,0.00,,,0.00,meteohub,2013-04-23 08:11:00,
2013-04-23 04:16:00,41.2,34.9,30.48,East,90,2.0,5.0,78,0.00,,,0.00,meteohub,2013-04-23 08:16:00,
2013-04-23 04:21:00,41.2,34.9,30.48,South,180,4.0,8.0,78,0.00,,,0.00,meteohub,2013-04-23 08:21:00,
2013-04-23 04:26:00,41.2,35.2,30.48,West,270,4.0,8.0,79,0.00,,,0.00,meteohub,2013-04-23 08:26:00,
2013-04-23 04:31:00,41.4,35.4,30.48,ENE,68,3.0,8.0,79,0.00,,,0.00,meteohub,2013-04-23 08:31:00,
2013-04-23 04:36:00,41.4,35.4,30.48,SE,135,7.0,8.0,79,0.00,,,0.00,meteohub,2013-04-23 08:36:00,
2013-04-23 04:41:00,41.4,35.6,30.48,WSW,248,4.0,8.0,80,0.00,,,0.00,meteohub,2013-04-23 08:41:00,
2013-04-23 04:46:00,41.4,35.6,30.47,West,270,2.0,9.0,80,0.00,,,0.00,meteohub,2013-04-23 08:46:00,
2013-04-23 04:51:00,41.4,35.6,30.47,East,90,8.0,9.0,80,0.00,,,0.00,meteohub,2013-04-23 08:51:00,
2013-04-23 04:56:00,41.2,35.4,30.46,East,90,4.0,9.0,80,0.00,,,0.00,meteohub,2013-04-23 08:56:00,
2013-04-23 05:01:00,41.2,35.4,30.47,East,90,4.0,8.0,80,0.00,,,0.00,meteohub,2013-04-23 09:01:00,
2013-04-23 05:06:00,41.2,35.4,30.47,West,270,7.0,8.0,80,0.00,,,0.00,meteohub,2013-04-23 09:06:00,
2013-04-23 05:12:00,41.2,35.8,30.47,South,180,4.0,8.0,81,0.00,,,0.00,meteohub,2013-04-23 09:12:00,
2013-04-23 05:17:00,41.2,35.8,30.47,WNW,293,3.0,8.0,81,0.00,,,0.00,meteohub,2013-04-23 09:17:00,
2013-04-23 05:22:00,41.2,35.8,30.47,East,90,11.0,11.0,81,0.00,,,0.00,meteohub,2013-04-23 09:22:00,
2013-04-23 05:27:00,41.0,35.6,30.48,NE,45,3.0,11.0,81,0.00,,,0.00,meteohub,2013-04-23 09:27:00,
2013-04-23 05:32:00,41.0,36.0,30.47,ENE,68,4.0,11.0,82,0.00,,,0.00,meteohub,2013-04-23 09:32:00,
2013-04-23 05:37:00,41.0,36.0,30.47,South,180,4.0,11.0,82,0.00,,,0.00,meteohub,2013-04-23 09:37:00,
2013-04-23 05:42:00,40.8,36.3,30.46,North,0,4.0,9.0,84,0.00,,,0.00,meteohub,2013-04-23 09:42:00,
2013-04-23 05:47:00,40.6,36.5,30.47,East,90,4.0,9.0,85,0.00,,,0.00,meteohub,2013-04-23 09:47:00,
2013-04-23 05:52:00,40.6,36.9,30.46,East,90,7.0,9.0,86,0.00,,,0.00,meteohub,2013-04-23 09:52:00,
2013-04-23 05:57:00,40.6,37.0,30.46,West,270,5.0,8.0,87,0.00,,,0.00,meteohub,2013-04-23 09:57:00,
2013-04-23 06:02:00,40.5,36.9,30.46,West,270,2.0,11.0,87,0.00,,,0.00,meteohub,2013-04-23 10:02:00,
2013-04-23 06:07:00,40.5,37.2,30.47,West,270,3.0,11.0,88,0.00,,,0.00,meteohub,2013-04-23 10:07:00,
2013-04-23 06:12:00,40.5,37.4,30.47,South,180,6.0,11.0,89,0.00,,,0.00,meteohub,2013-04-23 10:12:00,
2013-04-23 06:17:00,40.3,37.9,30.47,East,90,7.0,9.0,91,0.00,,,0.00,meteohub,2013-04-23 10:17:00,
2013-04-23 06:22:00,40.1,37.8,30.47,West,270,3.0,9.0,91,0.00,,,0.00,meteohub,2013-04-23 10:22:00,
2013-04-23 06:28:00,40.1,37.9,30.46,NE,45,4.0,8.0,92,0.00,,,0.00,meteohub,2013-04-23 10:28:00,
2013-04-23 06:33:00,40.1,38.3,30.46,NW,315,4.0,8.0,93,0.00,,,0.00,meteohub,2013-04-23 10:33:00,
2013-04-23 06:38:00,40.1,38.3,30.46,NE,45,4.0,8.0,93,0.00,,,0.00,meteohub,2013-04-23 10:38:00,
2013-04-23 06:43:00,40.1,38.5,30.46,ENE,68,8.0,8.0,94,0.00,,,0.00,meteohub,2013-04-23 10:43:00,
2013-04-23 06:48:00,40.1,38.8,30.46,NE,45,8.0,8.0,95,0.00,,,0.00,meteohub,2013-04-23 10:48:00,
2013-04-23 06:53:00,40.1,39.0,30.46,NW,315,5.0,8.0,96,0.00,,,0.00,meteohub,2013-04-23 10:53:00,
2013-04-23 06:58:00,40.1,39.0,30.46,North,0,7.0,8.0,96,0.00,,,0.00,meteohub,2013-04-23 10:58:00,
2013-04-23 07:03:00,40.1,39.4,30.46,West,270,4.0,8.0,97,0.00,,,0.00,meteohub,2013-04-23 11:03:00,
2013-04-23 07:08:00,40.1,39.4,30.46,NE,45,5.0,8.0,97,0.00,,,0.00,meteohub,2013-04-23 11:08:00,
2013-04-23 07:13:00,40.1,39.4,30.46,NW,315,8.0,8.0,97,0.00,,,0.00,meteohub,2013-04-23 11:13:00,
2013-04-23 07:18:00,39.9,39.4,30.46,ENE,68,9.0,9.0,98,0.01,,,0.01,meteohub,2013-04-23 11:18:00,
2013-04-23 07:23:00,40.1,39.6,30.46,East,90,4.0,9.0,98,0.01,,,0.01,meteohub,2013-04-23 11:23:00,
2013-04-23 07:28:00,40.1,39.6,30.46,West,270,4.0,9.0,98,0.01,,,0.01,meteohub,2013-04-23 11:28:00,
2013-04-23 07:33:00,40.1,39.9,30.46,NW,315,5.0,9.0,99,0.01,,,0.01,meteohub,2013-04-23 11:33:00,
2013-04-23 07:38:00,40.1,39.9,30.46,NW,315,4.0,7.0,99,0.01,,,0.01,meteohub,2013-04-23 11:38:00,
2013-04-23 07:44:00,40.1,39.9,30.46,NNE,23,3.0,7.0,99,0.01,,,0.01,meteohub,2013-04-23 11:44:00,
2013-04-23 07:49:00,40.1,39.9,30.46,East,90,3.0,6.0,99,0.01,,,0.01,meteohub,2013-04-23 11:49:00,
2013-04-23 07:54:00,40.3,40.1,30.46,SSE,158,8.0,8.0,99,0.01,,,0.01,meteohub,2013-04-23 11:54:00,
2013-04-23 07:59:00,40.3,40.1,30.46,ENE,68,6.0,9.0,99,0.01,,,0.01,meteohub,2013-04-23 11:59:00,
2013-04-23 08:04:00,40.3,40.1,30.45,NE,45,2.0,9.0,99,0.02,,,0.02,meteohub,2013-04-23 12:04:00,
2013-04-23 08:09:00,40.5,40.3,30.45,NE,45,7.0,9.0,99,0.02,,,0.02,meteohub,2013-04-23 12:09:00,
2013-04-23 08:14:00,40.5,40.3,30.46,NE,45,4.0,6.0,99,0.02,,,0.02,meteohub,2013-04-23 12:14:00,
2013-04-23 08:19:00,40.5,40.3,30.46,NE,45,2.0,7.0,99,0.01,,,0.02,meteohub,2013-04-23 12:19:00,
2013-04-23 08:24:00,40.6,40.5,30.46,NE,45,5.0,8.0,99,0.01,,,0.02,meteohub,2013-04-23 12:24:00,
2013-04-23 08:29:00,40.6,40.5,30.45,West,270,4.0,8.0,99,0.01,,,0.02,meteohub,2013-04-23 12:29:00,
2013-04-23 08:34:00,40.6,40.5,30.45,NE,45,4.0,8.0,99,0.01,,,0.02,meteohub,2013-04-23 12:34:00,
2013-04-23 08:39:00,40.6,40.5,30.45,NE,45,3.0,5.0,99,0.01,,,0.02,meteohub,2013-04-23 12:39:00,
2013-04-23 08:44:00,40.8,40.6,30.45,West,270,2.0,8.0,99,0.01,,,0.02,meteohub,2013-04-23 12:44:00,
2013-04-23 08:49:00,40.8,40.6,30.45,West,270,4.0,8.0,99,0.01,,,0.02,meteohub,2013-04-23 12:49:00,
2013-04-23 08:54:00,40.8,40.6,30.45,NE,45,5.0,8.0,99,0.01,,,0.02,meteohub,2013-04-23 12:54:00,
2013-04-23 09:00:00,41.0,40.8,30.45,West,270,3.0,6.0,99,0.00,,,0.02,meteohub,2013-04-23 13:00:00,
2013-04-23 09:05:00,41.0,40.8,30.44,West,270,4.0,5.0,99,0.00,,,0.02,meteohub,2013-04-23 13:05:00,
2013-04-23 09:10:00,41.0,40.8,30.44,North,0,0.0,5.0,99,0.00,,,0.02,meteohub,2013-04-23 13:10:00,
2013-04-23 09:15:00,41.2,41.0,30.43,West,270,4.0,4.0,99,0.00,,,0.02,meteohub,2013-04-23 13:15:00,
2013-04-23 09:20:00,41.2,41.0,30.44,NE,45,4.0,4.0,99,0.00,,,0.02,meteohub,2013-04-23 13:20:00,
2013-04-23 09:25:00,41.2,41.0,30.44,East,90,2.0,6.0,99,0.00,,,0.02,meteohub,2013-04-23 13:25:00,
2013-04-23 09:30:00,41.2,41.0,30.44,East,90,2.0,6.0,99,0.00,,,0.02,meteohub,2013-04-23 13:30:00,
2013-04-23 09:35:00,41.2,41.0,30.44,West,270,4.0,4.0,99,0.01,,,0.04,meteohub,2013-04-23 13:35:00,
2013-04-23 09:40:00,41.0,40.8,30.44,NNE,23,2.0,8.0,99,0.01,,,0.04,meteohub,2013-04-23 13:40:00,
2013-04-23 09:45:00,41.0,40.8,30.44,NE,45,3.0,8.0,99,0.01,,,0.04,meteohub,2013-04-23 13:45:00,
2013-04-23 09:50:00,41.0,40.8,30.43,NE,45,4.0,8.0,99,0.01,,,0.04,meteohub,2013-04-23 13:50:00,
2013-04-23 09:55:00,41.0,40.8,30.43,West,270,11.0,11.0,99,0.01,,,0.04,meteohub,2013-04-23 13:55:00,
2013-04-23 10:00:00,41.2,41.0,30.43,North,0,3.0,11.0,99,0.01,,,0.04,meteohub,2013-04-23 14:00:00,
2013-04-23 10:05:00,41.2,41.0,30.43,SE,135,5.0,11.0,99,0.01,,,0.04,meteohub,2013-04-23 14:05:00,
2013-04-23 10:10:00,41.2,41.0,30.43,NE,45,6.0,11.0,99,0.01,,,0.04,meteohub,2013-04-23 14:10:00,
2013-04-23 10:16:00,41.2,41.0,30.43,ENE,68,3.0,7.0,99,0.01,,,0.04,meteohub,2013-04-23 14:16:00,
2013-04-23 10:21:00,41.2,41.0,30.43,West,270,6.0,7.0,99,0.01,,,0.04,meteohub,2013-04-23 14:21:00,
2013-04-23 10:26:00,41.4,41.2,30.43,West,270,4.0,7.0,99,0.01,,,0.04,meteohub,2013-04-23 14:26:00,
2013-04-23 10:31:00,41.4,41.2,30.43,West,270,3.0,8.0,99,0.01,,,0.04,meteohub,2013-04-23 14:31:00,
2013-04-23 10:36:00,41.4,41.2,30.42,East,90,3.0,8.0,99,0.00,,,0.04,meteohub,2013-04-23 14:36:00,
2013-04-23 10:41:00,41.5,41.4,30.43,North,0,4.0,8.0,99,0.00,,,0.04,meteohub,2013-04-23 14:41:00,
2013-04-23 10:46:00,41.5,41.4,30.42,West,270,4.0,6.0,99,0.00,,,0.04,meteohub,2013-04-23 14:46:00,
2013-04-23 10:51:00,41.5,41.4,30.43,NE,45,4.0,8.0,99,0.00,,,0.04,meteohub,2013-04-23 14:51:00,
2013-04-23 10:56:00,41.5,41.4,30.42,NW,315,5.0,8.0,99,0.00,,,0.04,meteohub,2013-04-23 14:56:00,
2013-04-23 11:01:00,41.7,41.5,30.42,NW,315,7.0,8.0,99,0.00,,,0.04,meteohub,2013-04-23 15:01:00,
2013-04-23 11:06:00,41.5,41.4,30.42,ESE,113,2.0,10.0,99,0.01,,,0.05,meteohub,2013-04-23 15:06:00,
2013-04-23 11:11:00,41.7,41.5,30.42,SE,135,6.0,10.0,99,0.01,,,0.05,meteohub,2013-04-23 15:11:00,
2013-04-23 11:16:00,41.7,41.5,30.41,NNW,338,2.0,10.0,99,0.01,,,0.05,meteohub,2013-04-23 15:16:00,
2013-04-23 11:21:00,41.7,41.5,30.42,WNW,293,3.0,8.0,99,0.01,,,0.05,meteohub,2013-04-23 15:21:00,
2013-04-23 11:26:00,41.7,41.5,30.41,NE,45,3.0,7.0,99,0.01,,,0.05,meteohub,2013-04-23 15:26:00,
2013-04-23 11:32:00,41.9,41.7,30.41,West,270,3.0,7.0,99,0.01,,,0.05,meteohub,2013-04-23 15:32:00,
2013-04-23 11:37:00,41.9,41.7,30.41,East,90,3.0,7.0,99,0.01,,,0.05,meteohub,2013-04-23 15:37:00,
2013-04-23 11:42:00,41.9,41.7,30.41,NE,45,4.0,7.0,99,0.01,,,0.05,meteohub,2013-04-23 15:42:00,
2013-04-23 11:47:00,41.9,41.7,30.41,South,180,4.0,7.0,99,0.01,,,0.05,meteohub,2013-04-23 15:47:00,
2013-04-23 11:52:00,41.9,41.7,30.40,SE,135,8.0,12.0,99,0.01,,,0.05,meteohub,2013-04-23 15:52:00,
2013-04-23 11:57:00,41.9,41.7,30.41,West,270,5.0,12.0,99,0.01,,,0.05,meteohub,2013-04-23 15:57:00,
2013-04-23 12:02:00,41.9,41.7,30.40,NW,315,5.0,12.0,99,0.01,,,0.05,meteohub,2013-04-23 16:02:00,
2013-04-23 12:07:00,41.7,41.5,30.40,South,180,5.0,11.0,99,0.00,,,0.05,meteohub,2013-04-23 16:07:00,
2013-04-23 12:12:00,41.9,41.7,30.39,NNE,23,4.0,8.0,99,0.00,,,0.05,meteohub,2013-04-23 16:12:00,
2013-04-23 12:17:00,41.9,41.7,30.39,NE,45,4.0,8.0,99,0.00,,,0.05,meteohub,2013-04-23 16:17:00,
2013-04-23 12:22:00,42.1,41.9,30.39,East,90,5.0,8.0,99,0.00,,,0.05,meteohub,2013-04-23 16:22:00,
2013-04-23 12:27:00,42.3,42.1,30.39,NE,45,7.0,7.0,99,0.00,,,0.05,meteohub,2013-04-23 16:27:00,
2013-04-23 12:32:00,42.3,42.1,30.38,SE,135,4.0,7.0,99,0.00,,,0.05,meteohub,2013-04-23 16:32:00,
2013-04-23 12:37:00,42.3,42.1,30.38,NE,45,4.0,7.0,99,0.00,,,0.05,meteohub,2013-04-23 16:37:00,
2013-04-23 12:42:00,42.1,41.9,30.38,NE,45,4.0,8.0,99,0.00,,,0.05,meteohub,2013-04-23 16:42:00,
2013-04-23 12:47:00,42.1,41.9,30.38,NW,315,6.0,8.0,99,0.00,,,0.05,meteohub,2013-04-23 16:47:00,
2013-04-23 12:52:00,42.1,41.9,30.37,NE,45,5.0,13.0,99,0.00,,,0.05,meteohub,2013-04-23 16:52:00,
2013-04-23 12:57:00,42.1,41.9,30.37,East,90,7.0,13.0,99,0.00,,,0.05,meteohub,2013-04-23 16:57:00,
2013-04-23 13:02:00,42.3,42.1,30.37,East,90,9.0,9.0,99,0.00,,,0.05,meteohub,2013-04-23 17:02:00,
2013-04-23 13:07:00,42.3,42.1,30.37,East,90,3.0,9.0,99,0.00,,,0.05,meteohub,2013-04-23 17:07:00,
2013-04-23 13:12:00,42.3,42.1,30.36,NE,45,2.0,9.0,99,0.00,,,0.05,meteohub,2013-04-23 17:12:00,
2013-04-23 13:17:00,42.3,42.1,30.37,NE,45,8.0,9.0,99,0.00,,,0.05,meteohub,2013-04-23 17:17:00,
2013-04-23 13:22:00,42.3,42.1,30.36,NW,315,3.0,8.0,99,0.00,,,0.05,meteohub,2013-04-23 17:22:00,
2013-04-23 13:27:00,42.4,42.3,30.36,NE,45,4.0,8.0,99,0.00,,,0.05,meteohub,2013-04-23 17:27:00,
2013-04-23 13:32:00,42.3,42.1,30.36,NE,45,6.0,8.0,99,0.00,,,0.05,meteohub,2013-04-23 17:32:00,
2013-04-23 13:37:00,42.3,42.1,30.35,NW,315,8.0,8.0,99,0.00,,,0.05,meteohub,2013-04-23 17:37:00,
2013-04-23 13:42:00,42.3,42.1,30.35,West,270,3.0,8.0,99,0.00,,,0.05,meteohub,2013-04-23 17:42:00,
2013-04-23 13:47:00,42.1,41.9,30.35,ESE,113,5.0,8.0,99,0.00,,,0.05,meteohub,2013-04-23 17:47:00,
2013-04-23 13:52:00,42.1,41.9,30.34,East,90,2.0,8.0,99,0.00,,,0.05,meteohub,2013-04-23 17:52:00,
2013-04-23 13:57:00,42.3,42.1,30.34,ESE,113,8.0,8.0,99,0.00,,,0.05,meteohub,2013-04-23 17:57:00,
2013-04-23 14:02:00,42.3,42.1,30.34,WNW,293,4.0,8.0,99,0.00,,,0.05,meteohub,2013-04-23 18:02:00,
2013-04-23 14:07:00,42.1,41.9,30.34,NE,45,3.0,8.0,99,0.00,,,0.05,meteohub,2013-04-23 18:07:00,
2013-04-23 14:12:00,42.3,42.1,30.34,NE,45,4.0,8.0,99,0.00,,,0.05,meteohub,2013-04-23 18:12:00,
2013-04-23 14:17:00,42.3,42.1,30.33,NE,45,8.0,8.0,99,0.00,,,0.05,meteohub,2013-04-23 18:17:00,
2013-04-23 14:22:00,42.1,41.9,30.33,South,180,8.0,8.0,99,0.00,,,0.05,meteohub,2013-04-23 18:22:00,
2013-04-23 14:27:00,42.1,41.9,30.33,NE,45,7.0,8.0,99,0.00,,,0.05,meteohub,2013-04-23 18:27:00,
2013-04-23 14:32:00,42.1,41.9,30.32,East,90,8.0,8.0,99,0.00,,,0.05,meteohub,2013-04-23 18:32:00,
2013-04-23 14:37:00,42.1,41.9,30.32,South,180,3.0,8.0,99,0.00,,,0.05,meteohub,2013-04-23 18:37:00,
2013-04-23 14:42:00,42.1,41.9,30.31,NE,45,3.0,8.0,99,0.00,,,0.05,meteohub,2013-04-23 18:42:00,
2013-04-23 14:47:00,42.1,41.9,30.31,NE,45,4.0,8.0,99,0.00,,,0.05,meteohub,2013-04-23 18:47:00,
2013-04-23 14:52:00,42.1,41.9,30.31,North,0,6.0,9.0,99,0.00,,,0.05,meteohub,2013-04-23 18:52:00,
2013-04-23 14:57:00,42.1,41.9,30.30,NE,45,4.0,9.0,99,0.00,,,0.05,meteohub,2013-04-23 18:57:00,
2013-04-23 15:02:00,41.9,41.7,30.31,NE,45,10.0,11.0,99,0.00,,,0.05,meteohub,2013-04-23 19:02:00,
2013-04-23 15:07:00,41.9,41.7,30.31,South,180,6.0,11.0,99,0.00,,,0.05,meteohub,2013-04-23 19:07:00,
2013-04-23 15:12:00,41.9,41.7,30.30,North,0,4.0,11.0,99,0.00,,,0.05,meteohub,2013-04-23 19:12:00,
2013-04-23 15:17:00,41.9,41.7,30.30,East,90,5.0,10.0,99,0.00,,,0.05,meteohub,2013-04-23 19:17:00,
2013-04-23 15:22:00,41.9,41.7,30.30,NE,45,5.0,8.0,99,0.00,,,0.05,meteohub,2013-04-23 19:22:00,
2013-04-23 15:27:00,41.9,41.7,30.29,ENE,68,5.0,12.0,99,0.00,,,0.05,meteohub,2013-04-23 19:27:00,
2013-04-23 15:32:00,41.9,41.7,30.29,NE,45,5.0,12.0,99,0.00,,,0.05,meteohub,2013-04-23 19:32:00,
2013-04-23 15:37:00,41.9,41.7,30.29,East,90,2.0,10.0,99,0.00,,,0.05,meteohub,2013-04-23 19:37:00,
2013-04-23 15:42:00,41.9,41.7,30.29,NE,45,6.0,6.0,99,0.00,,,0.05,meteohub,2013-04-23 19:42:00,
2013-04-23 15:47:00,41.9,41.7,30.29,NW,315,7.0,7.0,99,0.00,,,0.05,meteohub,2013-04-23 19:47:00,
2013-04-23 15:52:00,41.9,41.7,30.28,East,90,6.0,8.0,99,0.00,,,0.05,meteohub,2013-04-23 19:52:00,
2013-04-23 15:57:00,41.9,41.7,30.29,East,90,6.0,8.0,99,0.00,,,0.05,meteohub,2013-04-23 19:57:00,
2013-04-23 16:02:00,41.9,41.7,30.29,SE,135,3.0,8.0,99,0.00,,,0.05,meteohub,2013-04-23 20:02:00,
2013-04-23 16:07:00,41.9,41.7,30.29,West,270,4.0,8.0,99,0.00,,,0.05,meteohub,2013-04-23 20:07:00,
2013-04-23 16:12:00,41.9,41.7,30.29,NNE,23,3.0,8.0,99,0.00,,,0.05,meteohub,2013-04-23 20:12:00,
2013-04-23 16:17:00,41.9,41.7,30.29,NE,45,4.0,8.0,99,0.01,,,0.06,meteohub,2013-04-23 20:17:00,
2013-04-23 16:22:00,41.9,41.7,30.28,East,90,4.0,8.0,99,0.01,,,0.06,meteohub,2013-04-23 20:22:00,
2013-04-23 16:27:00,41.9,41.7,30.27,NE,45,4.0,8.0,99,0.01,,,0.06,meteohub,2013-04-23 20:27:00,
2013-04-23 16:32:00,41.9,41.7,30.27,East,90,5.0,8.0,99,0.01,,,0.06,meteohub,2013-04-23 20:32:00,
2013-04-23 16:37:00,41.9,41.7,30.27,North,0,2.0,10.0,99,0.02,,,0.07,meteohub,2013-04-23 20:37:00,
2013-04-23 16:42:00,41.9,41.7,30.27,SSE,158,4.0,10.0,99,0.02,,,0.07,meteohub,2013-04-23 20:42:00,
2013-04-23 16:47:00,41.9,41.7,30.28,NE,45,7.0,10.0,99,0.02,,,0.07,meteohub,2013-04-23 20:47:00,
2013-04-23 16:52:00,41.7,41.5,30.28,West,270,3.0,7.0,99,0.04,,,0.08,meteohub,2013-04-23 20:52:00,
2013-04-23 16:57:00,41.7,41.5,30.27,East,90,4.0,7.0,99,0.04,,,0.08,meteohub,2013-04-23 20:57:00,
2013-04-23 17:02:00,41.7,41.5,30.27,NE,45,2.0,7.0,99,0.04,,,0.08,meteohub,2013-04-23 21:02:00,
2013-04-23 17:07:00,41.7,41.5,30.27,NE,45,6.0,6.0,99,0.04,,,0.08,meteohub,2013-04-23 21:07:00,
2013-04-23 17:12:00,41.7,41.5,30.27,NE,45,4.0,7.0,99,0.05,,,0.09,meteohub,2013-04-23 21:12:00,
2013-04-23 17:17:00,41.7,41.5,30.27,NE,45,4.0,11.0,99,0.04,,,0.09,meteohub,2013-04-23 21:17:00,
2013-04-23 17:22:00,41.7,41.5,30.28,East,90,4.0,11.0,99,0.04,,,0.09,meteohub,2013-04-23 21:22:00,
2013-04-23 17:27:00,41.7,41.5,30.28,North,0,6.0,9.0,99,0.05,,,0.11,meteohub,2013-04-23 21:27:00,
2013-04-23 17:32:00,41.7,41.5,30.27,NE,45,6.0,9.0,99,0.04,,,0.11,meteohub,2013-04-23 21:32:00,
2013-04-23 17:37:00,41.7,41.5,30.26,West,270,5.0,9.0,99,0.04,,,0.11,meteohub,2013-04-23 21:37:00,
2013-04-23 17:42:00,41.7,41.5,30.26,East,90,10.0,10.0,99,0.04,,,0.11,meteohub,2013-04-23 21:42:00,
2013-04-23 17:47:00,41.7,41.5,30.26,NE,45,11.0,11.0,99,0.04,,,0.11,meteohub,2013-04-23 21:47:00,
2013-04-23 17:52:00,41.7,41.5,30.25,NW,315,5.0,11.0,99,0.02,,,0.11,meteohub,2013-04-23 21:52:00,
2013-04-23 17:57:00,41.7,41.5,30.25,South,180,7.0,11.0,99,0.02,,,0.11,meteohub,2013-04-23 21:57:00,
2013-04-23 18:02:00,41.7,41.5,30.25,NE,45,3.0,11.0,99,0.04,,,0.12,meteohub,2013-04-23 22:02:00,
2013-04-23 18:07:00,41.7,41.5,30.25,NE,45,7.0,10.0,99,0.04,,,0.12,meteohub,2013-04-23 22:07:00,
2013-04-23 18:12:00,41.7,41.5,30.24,NE,45,6.0,8.0,99,0.02,,,0.12,meteohub,2013-04-23 22:12:00,
2013-04-23 18:17:00,41.7,41.5,30.24,North,0,7.0,11.0,99,0.02,,,0.12,meteohub,2013-04-23 22:17:00,
2013-04-23 18:22:00,41.5,41.4,30.24,East,90,4.0,11.0,99,0.02,,,0.12,meteohub,2013-04-23 22:22:00,
2013-04-23 18:27:00,41.5,41.4,30.24,North,0,7.0,11.0,99,0.01,,,0.12,meteohub,2013-04-23 22:27:00,
2013-04-23 18:32:00,41.5,41.4,30.24,NE,45,9.0,11.0,99,0.01,,,0.12,meteohub,2013-04-23 22:32:00,
2013-04-23 18:37:00,41.5,41.4,30.23,East,90,2.0,11.0,99,0.02,,,0.13,meteohub,2013-04-23 22:37:00,
2013-04-23 18:42:00,41.5,41.4,30.23,East,90,5.0,9.0,99,0.02,,,0.13,meteohub,2013-04-23 22:42:00,
2013-04-23 18:47:00,41.5,41.4,30.22,NE,45,4.0,9.0,99,0.02,,,0.13,meteohub,2013-04-23 22:47:00,
2013-04-23 18:52:00,41.5,41.4,30.22,North,0,4.0,8.0,99,0.02,,,0.13,meteohub,2013-04-23 22:52:00,
2013-04-23 18:57:00,41.5,41.4,30.22,NW,315,6.0,9.0,99,0.02,,,0.13,meteohub,2013-04-23 22:57:00,
2013-04-23 19:02:00,41.7,41.5,30.22,NNE,23,4.0,9.0,99,0.01,,,0.13,meteohub,2013-04-23 23:02:00,
2013-04-23 19:07:00,41.7,41.5,30.22,SSE,158,7.0,9.0,99,0.01,,,0.13,meteohub,2013-04-23 23:07:00,
2013-04-23 19:12:00,41.7,41.5,30.22,East,90,9.0,9.0,99,0.01,,,0.13,meteohub,2013-04-23 23:12:00,
2013-04-23 19:17:00,41.7,41.5,30.23,South,180,8.0,9.0,99,0.01,,,0.13,meteohub,2013-04-23 23:17:00,
2013-04-23 19:22:00,41.7,41.5,30.22,NE,45,7.0,10.0,99,0.01,,,0.13,meteohub,2013-04-23 23:22:00,
2013-04-23 19:27:00,41.7,41.5,30.22,East,90,6.0,10.0,99,0.01,,,0.13,meteohub,2013-04-23 23:27:00,
2013-04-23 19:32:00,41.7,41.5,30.22,SE,135,2.0,10.0,99,0.02,,,0.14,meteohub,2013-04-23 23:32:00,
2013-04-23 19:37:00,41.7,41.5,30.22,SE,135,2.0,8.0,99,0.01,,,0.14,meteohub,2013-04-23 23:37:00,
2013-04-23 19:42:00,41.7,41.5,30.21,NE,45,4.0,8.0,99,0.01,,,0.14,meteohub,2013-04-23 23:42:00,
2013-04-23 19:47:00,41.7,41.5,30.21,East,90,3.0,7.0,99,0.01,,,0.14,meteohub,2013-04-23 23:47:00,
2013-04-23 19:52:00,41.7,41.5,30.20,East,90,7.0,7.0,99,0.01,,,0.14,meteohub,2013-04-23 23:52:00,
2013-04-23 19:57:00,41.7,41.5,30.21,East,90,4.0,7.0,99,0.01,,,0.14,meteohub,2013-04-23 23:57:00,
2013-04-23 20:02:00,41.7,41.5,30.21,East,90,4.0,11.0,99,0.01,,,0.14,meteohub,2013-04-24 00:02:00,
2013-04-23 20:07:00,41.7,41.5,30.20,East,90,7.0,11.0,99,0.01,,,0.14,meteohub,2013-04-24 00:07:00,
2013-04-23 20:12:00,41.7,41.5,30.20,SE,135,3.0,11.0,99,0.01,,,0.14,meteohub,2013-04-24 00:12:00,
2013-04-23 20:17:00,41.7,41.5,30.20,NW,315,3.0,10.0,99,0.02,,,0.15,meteohub,2013-04-24 00:17:00,
2013-04-23 20:22:00,41.7,41.5,30.20,NE,45,7.0,11.0,99,0.02,,,0.15,meteohub,2013-04-24 00:22:00,
2013-04-23 20:27:00,41.5,41.4,30.20,East,90,10.0,11.0,99,0.02,,,0.15,meteohub,2013-04-24 00:27:00,
2013-04-23 20:32:00,41.5,41.4,30.20,NE,45,5.0,11.0,99,0.01,,,0.15,meteohub,2013-04-24 00:32:00,
2013-04-23 20:37:00,41.5,41.4,30.20,SE,135,5.0,11.0,99,0.01,,,0.15,meteohub,2013-04-24 00:37:00,
2013-04-23 20:42:00,41.5,41.4,30.19,SSW,203,4.0,11.0,99,0.01,,,0.15,meteohub,2013-04-24 00:42:00,
2013-04-23 20:47:00,41.5,41.4,30.19,North,0,4.0,7.0,99,0.02,,,0.17,meteohub,2013-04-24 00:47:00,
2013-04-23 20:52:00,41.5,41.4,30.20,NE,45,2.0,7.0,99,0.02,,,0.17,meteohub,2013-04-24 00:52:00,
2013-04-23 20:57:00,41.5,41.4,30.19,NE,45,5.0,8.0,99,0.02,,,0.17,meteohub,2013-04-24 00:57:00,
2013-04-23 21:02:00,41.5,41.4,30.18,NNE,23,3.0,11.0,99,0.02,,,0.17,meteohub,2013-04-24 01:02:00,
2013-04-23 21:07:00,41.5,41.4,30.18,NE,45,5.0,11.0,99,0.02,,,0.17,meteohub,2013-04-24 01:07:00,
2013-04-23 21:12:00,41.4,41.2,30.18,NW,315,4.0,10.0,99,0.02,,,0.17,meteohub,2013-04-24 01:12:00,
2013-04-23 21:18:00,41.4,41.2,30.16,NNE,23,3.0,8.0,99,0.01,,,0.17,meteohub,2013-04-24 01:18:00,
2013-04-23 21:23:00,41.4,41.2,30.16,NE,45,9.0,9.0,99,0.01,,,0.17,meteohub,2013-04-24 01:23:00,
2013-04-23 21:28:00,41.4,41.2,30.17,East,90,8.0,9.0,99,0.01,,,0.17,meteohub,2013-04-24 01:28:00,
2013-04-23 21:33:00,41.4,41.2,30.16,NE,45,10.0,10.0,99,0.01,,,0.17,meteohub,2013-04-24 01:33:00,
2013-04-23 21:38:00,41.4,41.2,30.17,East,90,8.0,11.0,99,0.02,,,0.18,meteohub,2013-04-24 01:38:00,
2013-04-23 21:43:00,41.4,41.2,30.16,SE,135,4.0,11.0,99,0.01,,,0.18,meteohub,2013-04-24 01:43:00,
2013-04-23 21:48:00,41.5,41.4,30.16,East,90,3.0,11.0,99,0.01,,,0.18,meteohub,2013-04-24 01:48:00,
2013-04-23 21:53:00,41.5,41.4,30.16,East,90,4.0,10.0,99,0.01,,,0.18,meteohub,2013-04-24 01:53:00,
2013-04-23 21:58:00,41.5,41.4,30.16,West,270,3.0,10.0,99,0.01,,,0.18,meteohub,2013-04-24 01:58:00,
2013-04-23 22:03:00,41.5,41.4,30.16,NE,45,3.0,8.0,99,0.01,,,0.18,meteohub,2013-04-24 02:03:00,
2013-04-23 22:08:00,41.5,41.4,30.16,East,90,3.0,8.0,99,0.01,,,0.18,meteohub,2013-04-24 02:08:00,
2013-04-23 22:14:00,41.5,41.4,30.16,NE,45,2.0,5.0,99,0.01,,,0.18,meteohub,2013-04-24 02:14:00,
2013-04-23 22:19:00,41.5,41.4,30.16,East,90,1.0,5.0,99,0.01,,,0.18,meteohub,2013-04-24 02:19:00,
2013-04-23 22:24:00,41.5,41.4,30.16,NE,45,3.0,8.0,99,0.01,,,0.18,meteohub,2013-04-24 02:24:00,
2013-04-23 22:29:00,41.5,41.4,30.15,NW,315,2.0,8.0,99,0.01,,,0.18,meteohub,2013-04-24 02:29:00,
2013-04-23 22:34:00,41.5,41.4,30.15,East,90,2.0,8.0,99,0.00,,,0.18,meteohub,2013-04-24 02:34:00,
2013-04-23 22:39:00,41.7,41.5,30.14,NE,45,3.0,6.0,99,0.00,,,0.18,meteohub,2013-04-24 02:39:00,
2013-04-23 22:45:00,41.7,41.5,30.14,East,90,5.0,6.0,99,0.00,,,0.18,meteohub,2013-04-24 02:45:00,
2013-04-23 22:50:00,41.7,41.5,30.14,East,90,4.0,6.0,99,0.00,,,0.18,meteohub,2013-04-24 02:50:00,
2013-04-23 22:55:00,41.7,41.5,30.14,SE,135,2.0,6.0,99,0.00,,,0.18,meteohub,2013-04-24 02:55:00,
2013-04-23 23:01:00,41.7,41.5,30.14,SE,135,3.0,8.0,99,0.00,,,0.18,meteohub,2013-04-24 03:01:00,
2013-04-23 23:06:00,41.7,41.5,30.14,WNW,293,4.0,8.0,99,0.00,,,0.18,meteohub,2013-04-24 03:06:00,
2013-04-23 23:12:00,41.7,41.5,30.13,SE,135,7.0,8.0,99,0.00,,,0.18,meteohub,2013-04-24 03:12:00,
2013-04-23 23:17:00,41.7,41.5,30.12,ENE,68,4.0,8.0,99,0.00,,,0.18,meteohub,2013-04-24 03:17:00,
2013-04-23 23:23:00,41.9,41.7,30.12,North,0,2.0,7.0,99,0.00,,,0.18,meteohub,2013-04-24 03:23:00,
2013-04-23 23:28:00,41.9,41.7,30.12,SE,135,2.0,11.0,99,0.00,,,0.18,meteohub,2013-04-24 03:28:00,
2013-04-23 23:34:00,41.9,41.7,30.12,SE,135,7.0,11.0,99,0.00,,,0.18,meteohub,2013-04-24 03:34:00,
2013-04-23 23:39:00,41.9,41.7,30.11,East,90,3.0,11.0,99,0.00,,,0.18,meteohub,2013-04-24 03:39:00,
2013-04-23 23:45:00,41.9,41.7,30.10,East,90,7.0,7.0,99,0.00,,,0.18,meteohub,2013-04-24 03:45:00,
2013-04-23 23:50:00,41.9,41.7,30.10,NW,315,5.0,7.0,99,0.00,,,0.18,meteohub,2013-04-24 03:50:00,
2013-04-23 23:55:00,41.9,41.7,30.10,East,90,6.0,7.0,99,0.00,,,0.18,meteohub,2013-04-24 03:55:00,